Auburn, CA

8:33 AM PDT on August 20, 2014 (GMT -0700)
Lincoln Regional-Harder | Change Station
CLOSE
Current Station
Airport
Location: Lincoln,
Elevation: 121 ft
Nearby Weather Stations

Elev 121 ft 38.91 °N, 121.35 °W | Updated 18 minutes ago

Scattered Clouds
Scattered Clouds
64 °F
Feels Like 64 °F
N
15
Wind Variable Wind from SE

Today
High -- | Low -- °F
--% Chance of Precip.
Yesterday
High -- | Low -- °F
Precip. -- in
6:22 AM 7:52 PM
Waning Crescent, 21% visible
Pressure 29.86 in
Visibility 10.0 miles
Clouds Scattered Clouds 1300 ft
Dew Point 55 °F
Humidity 73%
Rainfall 0.00 in
Snow Depth Not available.
UV 1 out of 12
Pollen 6.20 out of 12
Ozone Good
Flu Activity Not available.
METAR KLHM 201515Z AUTO 14013KT 10SM SCT013 18/13 A2986 RMK AO1

More Conditions Fewer Conditions

Pressure 29.86 in
Visibility 10.0 miles
Clouds Scattered Clouds 1300 ft
Dew Point 55 °F
Humidity 73%
Rainfall 0.00 in
Snow Depth Not available.
UV 1 out of 12
Pollen 6.20 out of 12
Ozone Good
Flu Activity Not available.
METAR KLHM 201515Z AUTO 14013KT 10SM SCT013 18/13 A2986 RMK AO1

More Conditions Fewer Conditions

10-Day Weather Forecast

Almanac

Astronomy

Aug. 20, 2014 Rise Set
Actual Time 6:22 AM PDT 7:52 PM PDT
Civil Twilight 5:54 AM PDT 8:20 PM PDT
Nautical Twilight 5:20 AM PDT 8:54 PM PDT
Astronomical Twilight 4:44 AM PDT 9:29 PM PDT
Moon 2:07 AM PDT 4:40 PM PDT
Length of Visible Light 14h 26m
Length of Day
13h 29m
Tomorrow will be 2m 18s shorter.
Waning Crescent, 21% of the Moon is Illuminated
Today
Waning Crescent
Aug 25
New
Sep 2
First Quarter
Sep 8
Full
Sep 15
Last Quarter

Today's Extremes

State Highs State Lows

Community

WunderPhotos

Upload Photos

1,745,667 photos uploaded!

WunderBlogs® & News

Nearby

Air Quality

  Air Quality AQ Index Pollutant
Yesterday Moderate
OZONE
Current Good
OZONE
Wednesday Moderate
OZONE
Thursday Moderate
OZONE
Friday Moderate
OZONE
Saturday Moderate
OZONE

Snow Depth

Station Depth Elevation
CSS Lab 2 in 6900 ft
Tahoe City Cross 0 in 6750 ft
Independence Camp 0 in 7000 ft
Independence Creek 0 in 6500 ft
Echo Peak 1 in 7800 ft

Earthquake Activity

City Distance Mag. Time & Date
Mariposa, California 126 miles 2.5 4:54 AM PDT
2014-08-14
Mariposa, California 127 miles 2.7 3:31 AM PDT
2014-08-14
The Geysers, California 89 miles 2.6 8:55 PM PDT
2014-08-13
Upper Lake, California 97 miles 2.9 3:32 PM PDT
2014-08-13
Minimum magnitude displayed is 2.5.

Coastal Water Temperatures

Place Temperature
No Stations Reporting

Nearby Weather Stations